[[{"header":{"parameterUnit":"m.s-1","parameterCategory":2,"la1":30.2991,"la2":30.254,"lo1":-89.0895,"lo2":-89.0444,"dy":0.0017,"dx":0.0017,"nx":28,"ny":28,"refTime":"2024-08-24T21:00:00:Z","depth":"0","parameterNumber":2,"parameterNumberName":"U-component_of_CURRENTS"},"data":[0,0,0,0,0,0,0,0,0,0,0,0,0,0,0,0,0,0,0,0,0,0,0,0,0,0,0,0,0,0,0,0,0,0,0,0,0,0,0,0,0,0,0,0,0,0,0,0,0,0,0,0,0,0,0,0,0,0,-0.2624,-0.2623,0,-0.2492,-0.249,-0.2488,-0.2461,-0.2463,-0.2464,-0.2466,-0.2419,-0.2416,-0.2413,0,0,0,0,0,0,0,0,0,0,0,0,0,-0.2574,-0.2577,-0.2624,-0.2623,-0.2622,-0.2493,-0.249,-0.2488,-0.2461,-0.2463,-0.2465,-0.2467,-0.242,-0.2416,-0.2413,0,0,0,0,0,0,0,0,0,0,0,0,0,-0.2529,-0.2577,-0.2624,-0.2597,-0.2594,-0.2493,-0.249,-0.2487,-0.2461,-0.2463,-0.2465,-0.2468,-0.2421,-0.2417,-0.2413,-0.234,0,0,-0.24,-0.2398,0,0,0,0,0,0,0,0,-0.2532,-0.2531,-0.2602,-0.2599,-0.2595,-0.2501,-0.2455,-0.2444,-0.246,-0.2505,-0.2466,-0.2469,-0.2456,-0.2449,-0.2409,-0.2338,-0.2336,-0.24,-0.2397,-0.2396,-0.2394,0,0,0,0,0,0,0,-0.2536,-0.2535,-0.2565,-0.2601,-0.2597,-0.2497,-0.2495,-0.2451,-0.2466,-0.2501,-0.25,-0.2495,-0.2455,-0.2413,-0.2409,-0.2335,-0.24,-0.2396,-0.2394,-0.2392,-0.2317,-0.2318,0,0,0,0,0,0,-0.2577,-0.2539,-0.257,-0.2562,-0.2576,-0.2498,-0.2495,-0.2524,-0.2464,-0.2459,-0.2493,-0.2494,-0.2419,-0.2413,-0.2407,-0.2352,-0.2396,-0.2392,-0.2389,-0.2317,-0.2317,-0.2318,0,0,0,0,0,0,-0.2577,-0.2582,-0.2575,-0.255,-0.2543,-0.2499,-0.2529,-0.252,-0.2502,-0.2458,-0.2454,-0.2489,-0.2421,-0.2413,-0.2392,-0.235,-0.239,-0.2386,-0.2316,-0.2317,-0.2318,-0.2222,0,0,0,0,0,0,-0.2577,-0.2584,-0.2617,-0.2555,-0.2547,-0.2525,-0.2527,-0.2516,-0.2497,-0.2497,-0.2452,-0.2449,-0.2422,-0.2398,-0.2387,-0.2345,-0.2383,-0.2316,-0.2317,-0.2317,-0.2224,-0.2219,-0.2215,0,0,0,0,0,-0.2576,-0.2615,-0.262,-0.2624,-0.2596,-0.2525,-0.251,-0.2479,-0.2495,-0.2474,-0.2461,-0.2451,-0.2397,-0.2394,-0.2382,-0.2337,-0.2315,-0.2316,-0.2317,-0.2227,-0.222,-0.2215,0,0,0,0,0,0,-0.2615,-0.2615,-0.2619,-0.2661,-0.2603,-0.2523,-0.2501,-0.2488,-0.2453,-0.2458,-0.2439,-0.2433,-0.2401,-0.2399,-0.2397,-0.233,-0.2361,-0.236,-0.2296,-0.229,-0.2285,-0.2229,-0.238,0,0,0,0,0,-0.264,-0.2674,-0.2629,-0.2659,-0.2628,-0.2566,-0.2538,-0.2509,-0.247,-0.2457,-0.2426,-0.241,-0.2387,-0.2368,-0.2343,-0.2291,-0.228,-0.2268,-0.2263,-0.2258,-0.2211,-0.2187,-0.2173,-0.2321,-0.2321,-0.2321,0,0,-0.2669,-0.2668,-0.2692,-0.2668,-0.2614,-0.253,-0.2553,-0.2499,-0.2436,-0.2457,-0.2378,-0.2386,-0.2377,-0.232,-0.2307,-0.2314,-0.2217,-0.226,-0.2255,-0.2209,-0.2186,-0.2171,-0.2157,-0.2322,-0.2322,-0.2322,0,0,-0.2655,-0.2725,-0.2695,-0.2642,-0.2569,-0.2527,-0.252,-0.2436,-0.2413,-0.2355,-0.2357,-0.2335,-0.2303,-0.2254,-0.224,-0.2197,-0.2199,-0.2225,-0.2128,-0.2106,-0.2091,-0.2079,-0.2058,-0.2044,-0.2212,-0.2212,-0.2212,0,-0.2681,-0.2634,-0.2669,-0.258,-0.253,-0.2526,-0.2426,-0.2389,-0.2314,-0.2293,-0.2333,-0.2268,-0.2253,-0.2169,-0.215,-0.2171,-0.2178,-0.2141,-0.2092,-0.208,-0.2068,-0.205,-0.2036,-0.2207,-0.2208,-0.2208,-0.2209,0,-0.2581,-0.2543,-0.2511,-0.2416,-0.2381,-0.23,-0.2253,-0.2222,-0.2227,-0.2192,-0.2148,-0.213,-0.2096,-0.2095,-0.2095,-0.2007,-0.2046,-0.2093,-0.2091,-0.2046,-0.2032,-0.2019,-0.2201,-0.2202,-0.2204,-0.2205,0,0,-0.2591,-0.2469,-0.244,-0.237,-0.2282,-0.2237,-0.2165,-0.2087,-0.2063,-0.2022,-0.1976,-0.1915,-0.1939,-0.1923,-0.1931,-0.1886,-0.1807,-0.1943,-0.1944,-0.1892,-0.1765,-0.1706,-0.1687,-0.186,-0.1857,-0.1855,-0.179,0,-0.2464,-0.229,-0.227,-0.2114,-0.2013,-0.2022,-0.1971,-0.1933,-0.1936,-0.1904,-0.189,-0.1862,-0.1869,-0.1871,-0.1818,-0.183,-0.1767,-0.1819,-0.1841,-0.184,-0.1767,-0.1666,-0.1558,-0.1483,-0.1777,-0.1775,-0.1774,0,-0.2294,-0.2217,-0.2037,-0.1964,-0.1929,-0.1867,-0.183,-0.1784,-0.1768,-0.1785,-0.1755,-0.178,-0.1693,-0.1741,-0.166,-0.1709,-0.1699,-0.1702,-0.1702,-0.1655,-0.1754,-0.1578,-0.1449,-0.1431,-0.1754,-0.1755,-0.1757,0,-0.2193,-0.204,-0.191,-0.1864,-0.1788,-0.1755,-0.1744,-0.1735,-0.1727,-0.1707,-0.1723,-0.1662,-0.1655,-0.1617,-0.1613,-0.1646,-0.1553,-0.1618,-0.1538,-0.1537,-0.1443,-0.1437,-0.126,-0.1523,-0.1523,-0.1523,-0.1523,0,-0.2019,-0.1917,-0.186,-0.1775,-0.1703,-0.169,-0.1643,-0.1643,-0.1651,-0.1638,-0.1652,-0.1631,-0.1628,-0.1598,-0.1581,-0.1502,-0.1527,-0.1462,-0.1489,-0.1413,-0.1405,-0.1388,-0.1429,-0.1521,-0.1521,-0.1522,-0.1522,0,-0.1878,-0.1823,-0.1693,-0.163,-0.1627,-0.1581,-0.1599,-0.1583,-0.1606,-0.1591,-0.1587,-0.1597,-0.1547,-0.1534,-0.1488,-0.1461,-0.1362,-0.1372,-0.1277,-0.1289,-0.1183,-0.1225,-0.1083,-0.106,-0.125,-0.1248,-0.1246,0,-0.1774,-0.167,-0.1601,-0.1574,-0.1539,-0.1507,-0.1502,-0.154,-0.1538,-0.156,-0.1542,-0.1513,-0.1448,-0.1356,-0.1303,-0.1225,-0.1259,-0.1102,-0.1107,-0.1092,-0.116,-0.1213,-0.1209,-0.0967,-0.0963,-0.0959,-0.0957,0,-0.1591,-0.157,-0.1501,-0.1447,-0.1423,-0.1407,-0.1405,-0.1406,-0.1451,-0.1438,-0.1396,-0.1343,-0.1268,-0.112,-0.105,-0.1011,-0.1054,-0.1031,-0.1029,-0.0891,-0.0919,-0.0941,-0.1121,-0.0927,-0.093,-0.0932,-0.0934,-0.0935,-0.1488,-0.1427,-0.1355,-0.131,-0.1301,-0.1278,-0.1238,-0.1256,-0.1226,-0.1172,-0.1207,-0.1054,-0.0979,-0.0837,-0.0814,-0.0725,-0.0829,-0.069,-0.0736,-0.0786,-0.075,-0.0849,-0.0686,-0.0688,-0.0689,-0.069,-0.0691,0,-0.1338,-0.1291,-0.1233,-0.1173,-0.1129,-0.1162,-0.1149,-0.1097,-0.1022,-0.0951,-0.087,-0.0662,-0.0554,-0.0522,-0.0461,-0.0434,-0.0468,-0.0447,-0.0487,-0.0496,-0.0568,-0.054,-0.0318,-0.0318,-0.0318,-0.0318,-0.0318,-0.0318,-0.1257,-0.1152,-0.1125,-0.1004,-0.0977,-0.0881,-0.0849,-0.0798,-0.0722,-0.0502,-0.0324,-0.0245,-0.0247,-0.0288,-0.0283,-0.0284,-0.0333,-0.0304,-0.039,-0.044,-0.0467,-0.0493,-0.0471,-0.0239,-0.0239,-0.0263,-0.0264,-0.0264]},{"header":{"parameterUnit":"m.s-1","parameterCategory":2,"la1":30.2991,"la2":30.254,"lo1":-89.0895,"lo2":-89.0444,"dy":0.0017,"dx":0.0017,"nx":28,"ny":28,"refTime":"2024-08-24T21:00:00:Z","depth":"0","parameterNumber":3,"parameterNumberName":"V-component_of_CURRENTS"},"data":[0,0,0,0,0,0,0,0,0,0,0,0,0,0,0,0,0,0,0,0,0,0,0,0,0,0,0,0,0,0,0,0,0,0,0,0,0,0,0,0,0,0,0,0,0,0,0,0,0,0,0,0,0,0,0,0,0,0,-0.0793,-0.079,0,-0.0484,-0.0481,-0.0478,-0.0372,-0.0373,-0.0374,-0.0375,-0.0187,-0.0182,-0.0176,0,0,0,0,0,0,0,0,0,0,0,0,0,-0.1154,-0.1149,-0.0794,-0.0789,-0.0785,-0.0485,-0.0481,-0.0477,-0.0372,-0.0373,-0.0374,-0.0375,-0.0189,-0.0182,-0.0175,0,0,0,0,0,0,0,0,0,0,0,0,0,-0.0941,-0.1148,-0.0794,-0.0694,-0.0681,-0.0486,-0.0481,-0.0476,-0.0372,-0.0373,-0.0375,-0.0376,-0.0191,-0.0183,-0.0174,-0.0094,0,0,-0.0148,-0.0144,0,0,0,0,0,0,0,0,-0.0953,-0.0928,-0.0713,-0.07,-0.0686,-0.0465,-0.0539,-0.0353,-0.0371,-0.0493,-0.0375,-0.0376,-0.0288,-0.0271,-0.0214,-0.0085,-0.0077,-0.0147,-0.0142,-0.0138,-0.0135,0,0,0,0,0,0,0,-0.0968,-0.094,-0.0675,-0.0708,-0.0692,-0.0616,-0.0589,-0.0502,-0.0392,-0.0483,-0.0474,-0.0433,-0.0282,-0.0222,-0.0209,-0.0074,-0.0147,-0.0139,-0.0134,-0.0131,0.0096,0.0096,0,0,0,0,0,0,-0.1003,-0.0954,-0.0685,-0.0665,-0.0821,-0.0609,-0.0579,-0.0538,-0.039,-0.0367,-0.0432,-0.0429,-0.0237,-0.0219,-0.0202,-0.0143,-0.0138,-0.013,-0.0125,0.0095,0.0096,0.0097,0,0,0,0,0,0,-0.1012,-0.0982,-0.0697,-0.08,-0.0758,-0.0602,-0.0556,-0.0531,-0.0466,-0.0349,-0.0329,-0.0393,-0.0237,-0.0214,-0.0131,-0.0134,-0.0126,-0.0118,0.0094,0.0095,0.0096,0.0004,0,0,0,0,0,0,-0.1024,-0.0988,-0.0972,-0.0802,-0.0753,-0.0579,-0.0553,-0.0524,-0.0437,-0.043,-0.0309,-0.0293,-0.0236,-0.0144,-0.0122,-0.0122,-0.0111,0.0093,0.0094,0.0096,0.0006,0.0001,-0.0002,0,0,0,0,0,-0.1038,-0.0983,-0.0973,-0.094,-0.0736,-0.0577,-0.0545,-0.0441,-0.0435,-0.0393,-0.0329,-0.0297,-0.012,-0.0136,-0.011,-0.0108,0.0092,0.0094,0.0096,0.0007,0.0002,-0.0002,0,0,0,0,0,0,-0.1118,-0.0961,-0.0948,-0.0849,-0.0735,-0.0558,-0.0487,-0.044,-0.0349,-0.0349,-0.0272,-0.0249,-0.0181,-0.0122,-0.0142,-0.0037,-0.0014,-0.0007,-0.0089,-0.0093,-0.0097,-0.0121,-0.0104,0,0,0,0,0,-0.1137,-0.1064,-0.0917,-0.0843,-0.078,-0.0647,-0.0572,-0.0507,-0.0399,-0.0359,-0.029,-0.0216,-0.0148,-0.0107,-0.0031,0.0039,0.0062,0.0054,0.005,0.0046,0.0046,0.0066,0.0062,0.0102,0.0102,0.0102,0,0,-0.1154,-0.1052,-0.1017,-0.0857,-0.0754,-0.0665,-0.0604,-0.0479,-0.0435,-0.0354,-0.0282,-0.022,-0.0131,-0.0064,-0.0029,-0.0019,0.0048,0.0048,0.0044,0.0046,0.0067,0.0062,0.0059,0.0103,0.0103,0.0103,0,0,-0.1117,-0.1053,-0.0975,-0.0887,-0.0735,-0.0659,-0.0634,-0.0478,-0.0437,-0.0354,-0.0303,-0.0249,-0.0127,-0.0077,-0.0035,-0.0009,0.0026,0.0016,-0.002,-0.0002,-0.0006,-0.001,0.0004,0.0003,0.0012,0.0012,0.0012,0,-0.1151,-0.1033,-0.093,-0.0832,-0.0768,-0.067,-0.0594,-0.0527,-0.0385,-0.036,-0.0349,-0.0207,-0.0139,-0.0073,-0.0068,-0.0022,-0.0005,-0.0017,-0.0012,-0.0014,-0.0016,-0.0001,-0.0001,0.0008,0.0009,0.0009,0.0009,0,-0.1042,-0.0975,-0.0909,-0.0787,-0.0715,-0.0619,-0.0531,-0.0486,-0.045,-0.0394,-0.0329,-0.0245,-0.0168,-0.0143,-0.0092,-0.0065,-0.0048,-0.0025,-0.0013,-0.0027,-0.0008,-0.0007,0.0002,0.0003,0.0005,0.0006,0,0,-0.1042,-0.0877,-0.0856,-0.0824,-0.0687,-0.0615,-0.0567,-0.0483,-0.047,-0.0389,-0.0367,-0.0266,-0.0238,-0.0189,-0.0133,-0.0115,-0.0118,-0.008,-0.0077,-0.0089,-0.0082,-0.0031,-0.0024,-0.0101,-0.0101,-0.0101,-0.007,0,-0.0991,-0.0851,-0.0778,-0.0699,-0.063,-0.0575,-0.0548,-0.0487,-0.0446,-0.0412,-0.0353,-0.0302,-0.0251,-0.0227,-0.0202,-0.0131,-0.0116,-0.0128,-0.0045,-0.0043,-0.0015,-0.0021,0.0009,0.0043,-0.0068,-0.0068,-0.0068,0,-0.0897,-0.0823,-0.0732,-0.0679,-0.0645,-0.0611,-0.0574,-0.0533,-0.0482,-0.0456,-0.0412,-0.0361,-0.0308,-0.0278,-0.0191,-0.0202,-0.0148,-0.0106,-0.0104,-0.0021,0.0012,0.0045,0.005,0.0113,-0.0066,-0.0066,-0.0066,0,-0.0922,-0.0799,-0.0746,-0.0713,-0.0631,-0.0619,-0.0594,-0.0548,-0.0537,-0.049,-0.0487,-0.0411,-0.0378,-0.0311,-0.0202,-0.0204,-0.0117,-0.0109,-0.0015,-0.0011,0.0051,0.0061,0.011,-0.0061,-0.0061,-0.0061,-0.0061,0,-0.0881,-0.0839,-0.0763,-0.0729,-0.0714,-0.0653,-0.0649,-0.0618,-0.0593,-0.0575,-0.0518,-0.0484,-0.0387,-0.0313,-0.0226,-0.0107,-0.0132,-0.0021,0.0003,0.0022,0.0028,0.0118,0.014,-0.006,-0.006,-0.0061,-0.0061,0,-0.0894,-0.0835,-0.0784,-0.0722,-0.0717,-0.0709,-0.0694,-0.0698,-0.0667,-0.0648,-0.0638,-0.0548,-0.0432,-0.033,-0.0204,-0.0132,0.0021,0.0021,0.0039,0.0064,0.0201,0.0217,0.0284,0.0344,0.0108,0.0109,0.0111,0,-0.0882,-0.0845,-0.08,-0.0801,-0.0773,-0.0764,-0.0772,-0.0741,-0.0736,-0.0663,-0.0654,-0.0546,-0.042,-0.0232,-0.0091,0.0054,0.0102,0.0148,0.0155,0.0216,0.025,0.024,0.0285,0.0193,0.0195,0.0196,0.0197,0,-0.0866,-0.0851,-0.0821,-0.083,-0.0837,-0.0843,-0.0836,-0.0834,-0.078,-0.0727,-0.0604,-0.0495,-0.0309,-0.01,0.0066,0.0146,0.0198,0.0184,0.0242,0.032,0.0317,0.0384,0.0159,0.0211,0.021,0.0209,0.0208,0.0207,-0.0869,-0.0864,-0.0842,-0.0853,-0.0875,-0.0885,-0.0857,-0.0808,-0.0744,-0.0553,-0.0508,-0.0227,-0.0102,0.0159,0.0235,0.0371,0.0335,0.0409,0.0421,0.0403,0.0472,0.0279,0.0365,0.0364,0.0364,0.0364,0.0363,0,-0.0857,-0.0854,-0.0869,-0.0876,-0.0901,-0.0908,-0.0875,-0.0785,-0.0628,-0.0388,-0.0189,0.0149,0.0298,0.042,0.0541,0.0607,0.06,0.0623,0.0609,0.0645,0.0473,0.0491,0.0614,0.0614,0.0614,0.0614,0.0614,0.0614,-0.0851,-0.085,-0.0859,-0.0888,-0.0898,-0.0871,-0.0823,-0.0633,-0.0422,0.0043,0.0395,0.0603,0.0687,0.0681,0.0775,0.0785,0.0846,0.0809,0.0855,0.0727,0.0707,0.0688,0.071,0.0877,0.0878,0.1024,0.1026,0.1027]}],[{"header":{"parameterUnit":"m.s-1","parameterCategory":2,"la1":30.2991,"la2":30.254,"lo1":-89.0895,"lo2":-89.0444,"dy":0.0017,"dx":0.0017,"nx":28,"ny":28,"refTime":"2024-08-24T21:00:00:Z","depth":"2","parameterNumber":2,"parameterNumberName":"U-component_of_CURRENTS"},"data":[0,0,0,0,0,0,0,0,0,0,0,0,0,0,0,0,0,0,0,0,0,0,0,0,0,0,0,0,0,0,0,0,0,0,0,0,0,0,0,0,0,0,0,0,0,0,0,0,0,0,0,0,0,0,0,0,0,0,-0.1667,-0.1668,0,-0.1729,-0.1729,-0.173,-0.1754,-0.1755,-0.1755,-0.1755,-0.177,-0.177,-0.1771,0,0,0,0,0,0,0,0,0,0,0,0,0,-0.157,-0.1571,-0.1667,-0.1668,-0.1669,-0.1729,-0.1729,-0.173,-0.1754,-0.1755,-0.1755,-0.1755,-0.177,-0.177,-0.1771,0,0,0,0,0,0,0,0,0,0,0,0,0,-0.1616,-0.1571,-0.1666,-0.1692,-0.1695,-0.1729,-0.173,-0.173,-0.1754,-0.1755,-0.1755,-0.1755,-0.177,-0.177,-0.1771,-0.1765,0,0,-0.1772,-0.1772,0,0,0,0,0,0,0,0,-0.1613,-0.1619,-0.1687,-0.169,-0.1694,-0.1738,-0.1701,-0.1741,-0.1754,-0.1727,-0.1755,-0.1755,-0.1758,-0.1759,-0.1764,-0.1766,-0.1767,-0.1772,-0.1772,-0.1772,-0.1772,0,0,0,0,0,0,0,-0.161,-0.1616,-0.1687,-0.1688,-0.1692,-0.1701,-0.1707,-0.1709,-0.1735,-0.1729,-0.1732,-0.1746,-0.1759,-0.1764,-0.1765,-0.1767,-0.1772,-0.1772,-0.1772,-0.1772,-0.1878,-0.188,0,0,0,0,0,0,-0.1611,-0.1613,-0.1685,-0.1689,-0.1659,-0.1702,-0.1709,-0.172,-0.1736,-0.1741,-0.1746,-0.1747,-0.1763,-0.1765,-0.1765,-0.1794,-0.1772,-0.1772,-0.1772,-0.1875,-0.1878,-0.1881,0,0,0,0,0,0,-0.1608,-0.1616,-0.1683,-0.1656,-0.1666,-0.1704,-0.1716,-0.1721,-0.1739,-0.175,-0.1753,-0.1761,-0.1764,-0.1765,-0.1805,-0.1793,-0.1772,-0.1772,-0.1872,-0.1876,-0.188,-0.1828,0,0,0,0,0,0,-0.1605,-0.1615,-0.1606,-0.1656,-0.1668,-0.172,-0.1716,-0.1722,-0.1749,-0.1751,-0.1764,-0.1765,-0.1764,-0.1805,-0.1805,-0.1793,-0.1773,-0.1869,-0.1874,-0.1878,-0.1827,-0.183,-0.1833,0,0,0,0,0,-0.1601,-0.159,-0.1605,-0.1613,-0.1659,-0.1721,-0.1728,-0.1752,-0.1749,-0.1767,-0.1789,-0.1765,-0.1837,-0.1807,-0.1807,-0.1794,-0.1866,-0.1872,-0.1878,-0.1825,-0.1829,-0.1833,0,0,0,0,0,0,-0.1533,-0.1594,-0.161,-0.1615,-0.1674,-0.1727,-0.1745,-0.1758,-0.1787,-0.1797,-0.1791,-0.1795,-0.1819,-0.1839,-0.1806,-0.1852,-0.185,-0.1856,-0.181,-0.1814,-0.1817,-0.1743,-0.1773,0,0,0,0,0,-0.1518,-0.1534,-0.1601,-0.161,-0.1647,-0.1697,-0.1718,-0.175,-0.179,-0.1802,-0.1812,-0.1835,-0.1842,-0.1855,-0.1872,-0.1895,-0.1867,-0.1898,-0.1901,-0.1903,-0.1851,-0.1826,-0.1819,-0.1901,-0.1901,-0.1901,0,0,-0.1522,-0.1531,-0.1558,-0.1598,-0.165,-0.1691,-0.1711,-0.1772,-0.1777,-0.1799,-0.1813,-0.1838,-0.1853,-0.1876,-0.189,-0.1891,-0.1877,-0.1911,-0.1911,-0.1856,-0.1831,-0.1822,-0.1814,-0.1905,-0.1904,-0.1903,0,0,-0.1528,-0.1532,-0.1567,-0.1602,-0.1671,-0.1695,-0.1716,-0.1789,-0.1797,-0.1831,-0.1839,-0.185,-0.1893,-0.1878,-0.1877,-0.1911,-0.1888,-0.1956,-0.1903,-0.1881,-0.1871,-0.1862,-0.184,-0.1829,-0.1963,-0.1963,-0.1963,0,-0.1523,-0.1543,-0.1588,-0.1613,-0.163,-0.1697,-0.1734,-0.175,-0.1815,-0.1812,-0.1839,-0.1861,-0.1867,-0.1845,-0.1859,-0.19,-0.1904,-0.1873,-0.1875,-0.1866,-0.1857,-0.1836,-0.1824,-0.1961,-0.1961,-0.1961,-0.1962,0,-0.1562,-0.1569,-0.1594,-0.1634,-0.1661,-0.1706,-0.1747,-0.1769,-0.1785,-0.1794,-0.1797,-0.1816,-0.182,-0.184,-0.1846,-0.1807,-0.1835,-0.1868,-0.184,-0.1843,-0.1825,-0.1813,-0.1959,-0.1959,-0.196,-0.196,0,0,-0.1578,-0.1616,-0.162,-0.1624,-0.1668,-0.1696,-0.1705,-0.1723,-0.1714,-0.1751,-0.1725,-0.1721,-0.1736,-0.1735,-0.1759,-0.1732,-0.1675,-0.1775,-0.1775,-0.1705,-0.1637,-0.1581,-0.1563,-0.1723,-0.1721,-0.1719,-0.1653,0,-0.1598,-0.1608,-0.1625,-0.1644,-0.1665,-0.1691,-0.1682,-0.1698,-0.1709,-0.1705,-0.1691,-0.1689,-0.1698,-0.1711,-0.1677,-0.1684,-0.1641,-0.1688,-0.1683,-0.1681,-0.159,-0.1546,-0.1428,-0.1353,-0.1642,-0.164,-0.1639,0,-0.1621,-0.1613,-0.1622,-0.1618,-0.1636,-0.1641,-0.1628,-0.1636,-0.1632,-0.1645,-0.1632,-0.1647,-0.1596,-0.1621,-0.156,-0.1606,-0.1592,-0.1588,-0.1588,-0.1524,-0.1601,-0.1398,-0.1321,-0.162,-0.1621,-0.1623,-0.1624,0,-0.1574,-0.16,-0.158,-0.1584,-0.1605,-0.1598,-0.1605,-0.161,-0.161,-0.1603,-0.1611,-0.1577,-0.1567,-0.1534,-0.1518,-0.155,-0.1458,-0.1513,-0.1433,-0.1432,-0.1314,-0.1305,-0.1427,-0.1427,-0.1427,-0.1428,-0.1428,0,-0.1542,-0.1538,-0.1554,-0.1544,-0.1526,-0.1557,-0.1542,-0.1552,-0.1565,-0.1554,-0.1571,-0.155,-0.1546,-0.1513,-0.1494,-0.1413,-0.1436,-0.137,-0.1388,-0.1302,-0.1293,-0.1515,-0.1526,-0.1425,-0.1426,-0.1426,-0.1427,0,-0.1486,-0.1502,-0.1486,-0.1497,-0.1501,-0.1483,-0.1511,-0.1506,-0.1529,-0.1516,-0.1514,-0.1519,-0.1465,-0.1451,-0.1401,-0.1373,-0.1316,-0.1283,-0.1178,-0.1181,-0.1312,-0.1322,-0.1171,-0.1168,-0.1166,-0.1164,-0.1162,0,-0.1449,-0.1431,-0.1435,-0.1428,-0.143,-0.1426,-0.1429,-0.1471,-0.1473,-0.1484,-0.1468,-0.1434,-0.1367,-0.1272,-0.1216,-0.114,-0.1223,-0.1011,-0.1015,-0.124,-0.1274,-0.1289,-0.1303,-0.0863,-0.0859,-0.0856,-0.0853,0,-0.137,-0.1372,-0.1359,-0.1343,-0.1341,-0.134,-0.135,-0.135,-0.1391,-0.1377,-0.1328,-0.1273,-0.1187,-0.1036,-0.0966,-0.0925,-0.1015,-0.0939,-0.1177,-0.0951,-0.0945,-0.0981,-0.1005,-0.0823,-0.0826,-0.0828,-0.083,-0.0831,-0.1305,-0.1274,-0.1257,-0.1237,-0.1245,-0.1228,-0.1189,-0.121,-0.1182,-0.1129,-0.1158,-0.1031,-0.0985,-0.0783,-0.0725,-0.0701,-0.0787,-0.0758,-0.077,-0.0785,-0.0766,-0.0756,-0.0594,-0.0596,-0.0597,-0.0599,-0.06,0,-0.1197,-0.1177,-0.1155,-0.1125,-0.1094,-0.1128,-0.1113,-0.1052,-0.0975,-0.0955,-0.0882,-0.0706,-0.0583,-0.0563,-0.0456,-0.0436,-0.046,-0.0433,-0.0456,-0.0484,-0.051,-0.048,-0.0231,-0.023,-0.0229,-0.0229,0,0,-0.1142,-0.1077,-0.1063,-0.0972,-0.0956,-0.0865,-0.0827,-0.0754,-0.0712,-0.0598,-0.0527,-0.0535,-0.052,-0.0368,-0.0331,-0.0261,-0.0382,-0.0248,-0.0538,-0.0592,-0.0617,-0.0682,-0.0664,0,0,0,0,0]},{"header":{"parameterUnit":"m.s-1","parameterCategory":2,"la1":30.2991,"la2":30.254,"lo1":-89.0895,"lo2":-89.0444,"dy":0.0017,"dx":0.0017,"nx":28,"ny":28,"refTime":"2024-08-24T21:00:00:Z","depth":"2","parameterNumber":3,"parameterNumberName":"V-component_of_CURRENTS"},"data":[0,0,0,0,0,0,0,0,0,0,0,0,0,0,0,0,0,0,0,0,0,0,0,0,0,0,0,0,0,0,0,0,0,0,0,0,0,0,0,0,0,0,0,0,0,0,0,0,0,0,0,0,0,0,0,0,0,0,-0.0225,-0.0225,0,-0.0207,-0.0206,-0.0206,-0.015,-0.0149,-0.0148,-0.0148,-0.0042,-0.0041,-0.0039,0,0,0,0,0,0,0,0,0,0,0,0,0,-0.0239,-0.0239,-0.0225,-0.0225,-0.0225,-0.0207,-0.0206,-0.0206,-0.015,-0.0149,-0.0148,-0.0147,-0.0043,-0.0041,-0.0038,0,0,0,0,0,0,0,0,0,0,0,0,0,-0.0225,-0.0238,-0.0225,-0.0198,-0.0195,-0.0207,-0.0206,-0.0205,-0.0151,-0.0149,-0.0148,-0.0147,-0.0044,-0.0041,-0.0038,-0.0047,0,0,-0.0029,-0.0028,0,0,0,0,0,0,0,0,-0.0226,-0.0224,-0.0202,-0.02,-0.0197,-0.0182,-0.0173,-0.0149,-0.0151,-0.0164,-0.0148,-0.0146,-0.0085,-0.0078,-0.0074,-0.0042,-0.0038,-0.0029,-0.0027,-0.0026,-0.0025,0,0,0,0,0,0,0,-0.0227,-0.0224,-0.0214,-0.0202,-0.0199,-0.0197,-0.0192,-0.0168,-0.0128,-0.0163,-0.0159,-0.0164,-0.0082,-0.0077,-0.0071,-0.0036,-0.0029,-0.0026,-0.0025,-0.0023,0.0066,0.0067,0,0,0,0,0,0,-0.0236,-0.0225,-0.0214,-0.0214,-0.0212,-0.0198,-0.0193,-0.0186,-0.013,-0.0122,-0.0165,-0.0161,-0.0083,-0.0074,-0.0067,-0.0035,-0.0026,-0.0023,-0.0021,0.0065,0.0066,0.0067,0,0,0,0,0,0,-0.0236,-0.0235,-0.0215,-0.0223,-0.022,-0.0199,-0.0191,-0.0186,-0.0178,-0.0133,-0.0122,-0.0163,-0.0081,-0.0071,-0.0034,-0.0031,-0.0022,-0.0019,0.0065,0.0066,0.0066,0.0005,0,0,0,0,0,0,-0.0236,-0.0235,-0.0236,-0.0223,-0.022,-0.0223,-0.0193,-0.0187,-0.0185,-0.018,-0.0128,-0.0117,-0.0079,-0.0039,-0.0031,-0.0027,-0.0017,0.0064,0.0065,0.0066,0.0006,0.0004,0.0001,0,0,0,0,0,-0.0237,-0.0258,-0.0236,-0.0235,-0.0221,-0.0225,-0.0223,-0.0201,-0.0186,-0.0188,-0.0143,-0.0118,-0.0025,-0.0036,-0.0027,-0.0023,0.0063,0.0065,0.0066,0.0007,0.0004,0.0001,0,0,0,0,0,0,-0.0274,-0.0254,-0.023,-0.0244,-0.0231,-0.0216,-0.0228,-0.0209,-0.0179,-0.0172,-0.0119,-0.0105,-0.0072,-0.0037,-0.0051,0.001,0.0026,0.0029,-0.0022,-0.0024,-0.0027,-0.0036,-0.0014,0,0,0,0,0,-0.0281,-0.028,-0.0261,-0.0269,-0.0269,-0.0246,-0.0247,-0.023,-0.0205,-0.0191,-0.015,-0.0102,-0.0062,-0.0036,0.0,0.0026,0.0052,0.004,0.0038,0.0035,0.0036,0.0069,0.0069,0.0071,0.0071,0.0071,0,0,-0.0299,-0.0288,-0.0287,-0.0276,-0.0266,-0.0265,-0.0242,-0.025,-0.0235,-0.0184,-0.0154,-0.0117,-0.0058,-0.0024,-0.0005,0.0008,0.0048,0.0037,0.0034,0.0037,0.007,0.007,0.0069,0.0072,0.0072,0.0072,0,0,-0.0339,-0.0323,-0.0334,-0.0323,-0.0313,-0.0295,-0.0298,-0.0279,-0.0257,-0.0232,-0.0184,-0.0146,-0.0089,-0.0042,-0.0011,-0.0005,0.0028,0.0011,-0.0004,0.0027,0.0027,0.0027,0.0051,0.0053,0.0017,0.0016,0.0016,0,-0.036,-0.0359,-0.0341,-0.0345,-0.0336,-0.0308,-0.0311,-0.0293,-0.0258,-0.0236,-0.0227,-0.0139,-0.0096,-0.0041,-0.0032,-0.0012,0.0009,-0.0003,0.0022,0.0022,0.0023,0.0048,0.0052,0.0014,0.0014,0.0014,0.0015,0,-0.0401,-0.0393,-0.0405,-0.0382,-0.0374,-0.0379,-0.0345,-0.033,-0.0303,-0.0272,-0.0226,-0.0174,-0.0115,-0.0097,-0.0062,-0.0025,-0.0012,0.0004,0.0021,0.0019,0.0046,0.005,0.001,0.0011,0.0012,0.0012,0,0,-0.0467,-0.0435,-0.0438,-0.0417,-0.0389,-0.0386,-0.0366,-0.0332,-0.0313,-0.0278,-0.0247,-0.0183,-0.0157,-0.0119,-0.0074,-0.0044,-0.0023,-0.0018,-0.0015,-0.0009,0.0041,0.0064,0.0071,-0.0006,-0.0005,-0.0004,0.0054,0,-0.0498,-0.0496,-0.0474,-0.0464,-0.0455,-0.0415,-0.0395,-0.0359,-0.0323,-0.0287,-0.0233,-0.0191,-0.0163,-0.0138,-0.0105,-0.004,-0.0011,-0.004,0.0056,0.0059,0.0067,0.0077,0.0077,0.013,0.0059,0.0059,0.006,0,-0.0544,-0.053,-0.0522,-0.0476,-0.0472,-0.0463,-0.0417,-0.0396,-0.0338,-0.0312,-0.0266,-0.0221,-0.0161,-0.0146,-0.0053,-0.0074,-0.0021,0.0021,0.0025,0.0071,0.0091,0.0125,0.0142,0.0068,0.0068,0.0067,0.0067,0,-0.0583,-0.0561,-0.0547,-0.0534,-0.0488,-0.0478,-0.0455,-0.0405,-0.0384,-0.0327,-0.0308,-0.0235,-0.0196,-0.013,-0.0039,-0.0045,0.0057,0.0062,0.013,0.0132,0.0166,0.017,0.0124,0.0124,0.0124,0.0123,0.0123,0,-0.0611,-0.0603,-0.0565,-0.0557,-0.0549,-0.0508,-0.0494,-0.0462,-0.0418,-0.0383,-0.0325,-0.0281,-0.019,-0.0116,-0.0045,0.006,0.0056,0.0131,0.0152,0.0145,0.0146,0.0122,0.0121,0.0126,0.0125,0.0125,0.0124,0,-0.0643,-0.0618,-0.0606,-0.057,-0.0565,-0.056,-0.0527,-0.0514,-0.047,-0.0425,-0.0409,-0.0312,-0.0208,-0.0117,0.0005,0.006,0.0152,0.0192,0.0173,0.0192,0.0204,0.02,0.0266,0.0268,0.0269,0.027,0.027,0,-0.0651,-0.0647,-0.0627,-0.0629,-0.0615,-0.0602,-0.0596,-0.0551,-0.0525,-0.0432,-0.0407,-0.03,-0.0193,-0.0023,0.0088,0.021,0.0201,0.0271,0.0263,0.0207,0.0221,0.0214,0.0208,0.0281,0.0282,0.0282,0.0283,0,-0.0666,-0.0662,-0.0652,-0.0661,-0.0662,-0.0654,-0.063,-0.0612,-0.0541,-0.0479,-0.0363,-0.027,-0.0104,0.0052,0.0192,0.0255,0.0247,0.0289,0.0249,0.0242,0.0225,0.0237,0.023,0.0289,0.0288,0.0288,0.0288,0.0287,-0.0677,-0.0681,-0.0676,-0.0683,-0.069,-0.0682,-0.0653,-0.06,-0.0532,-0.0396,-0.0324,-0.0168,-0.0043,0.0177,0.0269,0.0327,0.0325,0.0342,0.0338,0.0334,0.0322,0.0308,0.0385,0.0385,0.0385,0.0385,0.0385,0,-0.0673,-0.068,-0.0694,-0.0697,-0.0706,-0.0705,-0.0656,-0.0597,-0.0479,-0.0347,-0.0206,-0.0055,0.0104,0.0203,0.0319,0.0397,0.0373,0.0393,0.0356,0.0351,0.0346,0.0333,0.04,0.04,0.04,0.04,0,0,-0.0671,-0.0679,-0.0687,-0.0702,-0.0707,-0.0677,-0.0634,-0.0521,-0.04,-0.0227,-0.0111,0.0017,0.0137,0.0222,0.0316,0.0368,0.0337,0.0361,0.0346,0.0291,0.0285,0.0317,0.0292,0,0,0,0,0]}],[{"header":{"parameterUnit":"m.s-1","parameterCategory":2,"la1":30.2991,"la2":30.254,"lo1":-89.0895,"lo2":-89.0444,"dy":0.0017,"dx":0.0017,"nx":28,"ny":28,"refTime":"2024-08-24T21:00:00:Z","depth":"4","parameterNumber":2,"parameterNumberName":"U-component_of_CURRENTS"},"data":[0,0,0,0,0,0,0,0,0,0,0,0,0,0,0,0,0,0,0,0,0,0,0,0,0,0,0,0,0,0,0,0,0,0,0,0,0,0,0,0,0,0,0,0,0,0,0,0,0,0,0,0,0,0,0,0,0,0,-0.0895,-0.0896,0,-0.0989,-0.099,-0.0991,-0.101,-0.1009,-0.1008,-0.1008,-0.1023,-0.1024,-0.1025,0,0,0,0,0,0,0,0,0,0,0,0,0,-0.08,-0.0802,-0.0895,-0.0896,-0.0897,-0.0989,-0.099,-0.0991,-0.101,-0.1009,-0.1008,-0.1007,-0.1023,-0.1024,-0.1026,0,0,0,0,0,0,0,0,0,0,0,0,0,-0.0863,-0.0802,-0.0894,-0.0917,-0.0919,-0.0988,-0.099,-0.0992,-0.101,-0.1009,-0.1008,-0.1007,-0.1022,-0.1024,-0.1026,-0.1061,0,0,-0.1031,-0.1032,0,0,0,0,0,0,0,0,-0.086,-0.0867,-0.0912,-0.0915,-0.0918,-0.0986,-0.0963,-0.1011,-0.1011,-0.0977,-0.1008,-0.1006,-0.1004,-0.1007,-0.103,-0.1061,-0.1062,-0.1031,-0.1032,-0.1033,-0.1034,0,0,0,0,0,0,0,-0.0855,-0.0863,-0.0933,-0.0913,-0.0917,-0.0946,-0.0953,-0.0973,-0.0995,-0.098,-0.0981,-0.0991,-0.1005,-0.1028,-0.103,-0.1062,-0.1031,-0.1033,-0.1034,-0.1034,-0.1136,-0.1138,0,0,0,0,0,0,-0.084,-0.0859,-0.093,-0.0936,-0.0884,-0.0948,-0.0956,-0.0966,-0.0997,-0.1001,-0.0991,-0.0991,-0.1026,-0.1028,-0.103,-0.1081,-0.1033,-0.1035,-0.1036,-0.1135,-0.1137,-0.1139,0,0,0,0,0,0,-0.0837,-0.0845,-0.0926,-0.0899,-0.0911,-0.095,-0.0962,-0.0969,-0.1003,-0.1006,-0.1009,-0.1019,-0.1025,-0.1028,-0.1071,-0.1081,-0.1035,-0.1037,-0.1133,-0.1135,-0.1138,-0.1178,0,0,0,0,0,0,-0.0834,-0.0844,-0.0854,-0.0897,-0.0912,-0.0979,-0.0963,-0.0971,-0.1009,-0.101,-0.1031,-0.1031,-0.1024,-0.1068,-0.1072,-0.1083,-0.1038,-0.1131,-0.1134,-0.1137,-0.1174,-0.1181,-0.1187,0,0,0,0,0,-0.0831,-0.0853,-0.0854,-0.0862,-0.0921,-0.0981,-0.0992,-0.1016,-0.1012,-0.104,-0.1057,-0.1031,-0.109,-0.1072,-0.1076,-0.1087,-0.1129,-0.1133,-0.1137,-0.1171,-0.118,-0.1187,0,0,0,0,0,0,-0.0819,-0.0858,-0.0859,-0.0892,-0.0935,-0.0984,-0.1016,-0.1029,-0.1068,-0.107,-0.1064,-0.1067,-0.1099,-0.1101,-0.1081,-0.1127,-0.1101,-0.1106,-0.1126,-0.1134,-0.114,-0.1134,-0.104,0,0,0,0,0,-0.082,-0.0845,-0.0886,-0.0914,-0.0939,-0.098,-0.1008,-0.1029,-0.1065,-0.1082,-0.1098,-0.1112,-0.1119,-0.1133,-0.1145,-0.1186,-0.1161,-0.1193,-0.12,-0.1205,-0.1205,-0.1187,-0.119,-0.1151,-0.1151,-0.1151,0,0,-0.0817,-0.0847,-0.0857,-0.0914,-0.0951,-0.1,-0.0995,-0.1052,-0.1086,-0.1077,-0.1134,-0.1136,-0.1135,-0.117,-0.1184,-0.1174,-0.1205,-0.121,-0.1214,-0.1211,-0.1191,-0.1194,-0.1197,-0.1153,-0.1153,-0.1152,0,0,-0.0846,-0.0861,-0.0899,-0.0941,-0.1004,-0.1029,-0.1048,-0.111,-0.113,-0.1188,-0.1174,-0.1194,-0.123,-0.1227,-0.1225,-0.1281,-0.1235,-0.1281,-0.1315,-0.1298,-0.13,-0.1302,-0.1274,-0.1273,-0.129,-0.1291,-0.1291,0,-0.0851,-0.0897,-0.0922,-0.098,-0.1013,-0.1043,-0.1096,-0.1128,-0.1194,-0.1204,-0.1211,-0.1247,-0.1253,-0.1263,-0.1285,-0.1292,-0.1271,-0.1281,-0.1303,-0.1304,-0.1305,-0.1277,-0.1275,-0.1293,-0.1293,-0.1292,-0.1292,0,-0.0909,-0.0953,-0.0986,-0.1056,-0.1094,-0.115,-0.1188,-0.1226,-0.1248,-0.1267,-0.1296,-0.1312,-0.1324,-0.1331,-0.1329,-0.1338,-0.1316,-0.1305,-0.1276,-0.1311,-0.1279,-0.1277,-0.1296,-0.1295,-0.1295,-0.1294,0,0,-0.0906,-0.1007,-0.1023,-0.1055,-0.1138,-0.1171,-0.1224,-0.1269,-0.1281,-0.1335,-0.1347,-0.1379,-0.1374,-0.1373,-0.1367,-0.1368,-0.1364,-0.1349,-0.1347,-0.1308,-0.1315,-0.1223,-0.1211,-0.1351,-0.1351,-0.1351,-0.1288,0,-0.095,-0.1056,-0.1095,-0.1172,-0.1217,-0.1251,-0.1286,-0.1321,-0.1344,-0.1364,-0.1368,-0.138,-0.139,-0.1391,-0.1395,-0.1363,-0.1359,-0.1381,-0.1298,-0.1295,-0.1198,-0.1205,-0.1351,-0.1286,-0.1285,-0.1285,-0.1285,0,-0.0992,-0.1054,-0.1146,-0.1207,-0.1229,-0.1273,-0.1308,-0.1345,-0.1367,-0.138,-0.1395,-0.1391,-0.1399,-0.14,-0.1372,-0.1383,-0.1358,-0.1338,-0.1335,-0.1231,-0.1198,-0.1246,-0.1279,-0.128,-0.128,-0.128,-0.1281,0,-0.0965,-0.1077,-0.1144,-0.1176,-0.1258,-0.1286,-0.1317,-0.1349,-0.1362,-0.1382,-0.1384,-0.1392,-0.1385,-0.1368,-0.1341,-0.1353,-0.1294,-0.1298,-0.1191,-0.1184,-0.1267,-0.1266,-0.1275,-0.1275,-0.1275,-0.1275,-0.1276,0,-0.0983,-0.1032,-0.1136,-0.1174,-0.1214,-0.127,-0.1301,-0.1328,-0.1355,-0.1352,-0.1383,-0.1366,-0.1377,-0.1347,-0.1329,-0.124,-0.128,-0.1187,-0.1159,-0.1287,-0.1289,-0.1264,-0.1264,-0.1273,-0.1274,-0.1274,-0.1274,0,-0.094,-0.1023,-0.109,-0.1186,-0.1209,-0.1231,-0.1289,-0.1298,-0.1333,-0.1328,-0.1333,-0.134,-0.129,-0.1283,-0.1239,-0.1201,-0.1142,-0.1104,-0.1231,-0.1212,-0.1047,-0.105,-0.097,-0.0966,-0.0963,-0.096,-0.0958,0,-0.0927,-0.0971,-0.1082,-0.1107,-0.1155,-0.1198,-0.1219,-0.1276,-0.128,-0.1293,-0.1274,-0.1247,-0.1238,-0.1087,-0.1106,-0.1042,-0.1037,-0.1005,-0.1043,-0.1034,-0.1015,-0.1023,-0.103,-0.0953,-0.0952,-0.0951,-0.095,0,-0.089,-0.0946,-0.0999,-0.1053,-0.1093,-0.1121,-0.1156,-0.1151,-0.1194,-0.1244,-0.1162,-0.1116,-0.1051,-0.1006,-0.096,-0.0926,-0.1026,-0.0972,-0.0979,-0.1013,-0.1013,-0.0999,-0.1009,-0.0939,-0.0941,-0.0942,-0.0942,0,-0.0852,-0.0871,-0.0946,-0.0974,-0.102,-0.1017,-0.1052,-0.1042,-0.1049,-0.1076,-0.1044,-0.1013,-0.1028,-0.0943,-0.0904,-0.0856,-0.0848,-0.0831,-0.0845,-0.0858,-0.0852,-0.0837,-0.0673,0,0,0,0,0,-0.08,-0.0819,-0.0853,-0.0883,-0.0923,-0.0937,-0.0992,-0.1028,-0.1079,-0.0988,-0.101,-0.0942,-0.086,-0.085,-0.0774,-0.0865,-0.0864,-0.0775,-0.0857,-0.0876,-0.0889,-0.0895,0,0,0,0,0,0,-0.0765,-0.081,-0.0825,-0.0793,-0.0786,-0.081,-0.0837,-0.0877,-0.0832,-0.0885,-0.0837,-0.0878,-0.0809,-0.0869,-0.0746,-0.0746,-0.0778,-0.0774,-0.0771,-0.0869,-0.0881,-0.0891,-0.0901,0,0,0,0,0]},{"header":{"parameterUnit":"m.s-1","parameterCategory":2,"la1":30.2991,"la2":30.254,"lo1":-89.0895,"lo2":-89.0444,"dy":0.0017,"dx":0.0017,"nx":28,"ny":28,"refTime":"2024-08-24T21:00:00:Z","depth":"4","parameterNumber":3,"parameterNumberName":"V-component_of_CURRENTS"},"data":[0,0,0,0,0,0,0,0,0,0,0,0,0,0,0,0,0,0,0,0,0,0,0,0,0,0,0,0,0,0,0,0,0,0,0,0,0,0,0,0,0,0,0,0,0,0,0,0,0,0,0,0,0,0,0,0,0,0,-0.0189,-0.0189,0,-0.0184,-0.0184,-0.0183,-0.0153,-0.0152,-0.0152,-0.0151,-0.0115,-0.0114,-0.0114,0,0,0,0,0,0,0,0,0,0,0,0,0,-0.0184,-0.0184,-0.0189,-0.0189,-0.0189,-0.0184,-0.0184,-0.0183,-0.0153,-0.0152,-0.0152,-0.0151,-0.0115,-0.0114,-0.0114,0,0,0,0,0,0,0,0,0,0,0,0,0,-0.0181,-0.0184,-0.0189,-0.0175,-0.0174,-0.0184,-0.0184,-0.0183,-0.0153,-0.0152,-0.0151,-0.0151,-0.0115,-0.0114,-0.0113,-0.0126,0,0,-0.0111,-0.0111,0,0,0,0,0,0,0,0,-0.0181,-0.0181,-0.0177,-0.0176,-0.0175,-0.017,-0.0168,-0.0163,-0.0153,-0.0159,-0.0151,-0.015,-0.0132,-0.013,-0.0128,-0.0124,-0.0123,-0.0111,-0.0111,-0.0111,-0.011,0,0,0,0,0,0,0,-0.0182,-0.0181,-0.0185,-0.0177,-0.0176,-0.0173,-0.0171,-0.0167,-0.0148,-0.0158,-0.0157,-0.0159,-0.0131,-0.0129,-0.0127,-0.0122,-0.0111,-0.0111,-0.011,-0.011,-0.0119,-0.0119,0,0,0,0,0,0,-0.0187,-0.0182,-0.0185,-0.0185,-0.0178,-0.0174,-0.0172,-0.0171,-0.0149,-0.0145,-0.016,-0.0158,-0.0131,-0.0128,-0.0126,-0.0116,-0.0111,-0.011,-0.011,-0.0118,-0.0119,-0.012,0,0,0,0,0,0,-0.0186,-0.0187,-0.0185,-0.0185,-0.0185,-0.0175,-0.0174,-0.0171,-0.0166,-0.0151,-0.0146,-0.0158,-0.013,-0.0127,-0.012,-0.0115,-0.011,-0.0109,-0.0117,-0.0118,-0.0119,-0.0111,0,0,0,0,0,0,-0.0186,-0.0187,-0.0191,-0.0185,-0.0185,-0.0194,-0.0175,-0.0172,-0.0171,-0.0168,-0.0148,-0.0144,-0.0129,-0.0122,-0.012,-0.0114,-0.0108,-0.0117,-0.0118,-0.0119,-0.0111,-0.0112,-0.0113,0,0,0,0,0,-0.0186,-0.0201,-0.0191,-0.0191,-0.0189,-0.0195,-0.0195,-0.0184,-0.0171,-0.0175,-0.0158,-0.0144,-0.0128,-0.0121,-0.0119,-0.0113,-0.0116,-0.0117,-0.0119,-0.011,-0.0112,-0.0113,0,0,0,0,0,0,-0.0205,-0.02,-0.0188,-0.0201,-0.0197,-0.0191,-0.0199,-0.0187,-0.0177,-0.0172,-0.015,-0.0146,-0.0142,-0.0135,-0.0129,-0.0123,-0.0121,-0.0122,-0.0115,-0.0116,-0.0117,-0.0105,-0.0108,0,0,0,0,0,-0.0211,-0.0216,-0.0209,-0.0218,-0.0219,-0.0207,-0.0209,-0.0199,-0.019,-0.0184,-0.0171,-0.0159,-0.0148,-0.0137,-0.0136,-0.0129,-0.0106,-0.0127,-0.0128,-0.0128,-0.0119,-0.0078,-0.0074,-0.0124,-0.0124,-0.0124,0,0,-0.0223,-0.0219,-0.0223,-0.0222,-0.0219,-0.0221,-0.0206,-0.0211,-0.0203,-0.0183,-0.0175,-0.0167,-0.0152,-0.0144,-0.0141,-0.0133,-0.0105,-0.013,-0.013,-0.0121,-0.0079,-0.0074,-0.0069,-0.0125,-0.0125,-0.0125,0,0,-0.0248,-0.0244,-0.0255,-0.0252,-0.0248,-0.0239,-0.024,-0.0233,-0.0221,-0.0216,-0.0197,-0.0177,-0.0177,-0.0147,-0.0135,-0.0142,-0.0119,-0.0156,-0.0137,-0.0098,-0.0092,-0.0087,-0.0057,-0.0049,-0.0146,-0.0146,-0.0146,0,-0.0261,-0.0267,-0.026,-0.0266,-0.0263,-0.0246,-0.025,-0.0239,-0.0228,-0.0213,-0.0217,-0.0188,-0.0171,-0.0134,-0.0134,-0.0139,-0.0123,-0.0128,-0.0096,-0.009,-0.0085,-0.0055,-0.0046,-0.0146,-0.0146,-0.0146,-0.0146,0,-0.0289,-0.0291,-0.03,-0.0292,-0.029,-0.0295,-0.0275,-0.0268,-0.0253,-0.0233,-0.0209,-0.0186,-0.016,-0.0156,-0.0143,-0.0102,-0.0106,-0.0106,-0.0085,-0.0079,-0.0049,-0.004,-0.0146,-0.0146,-0.0146,-0.0146,0,0,-0.0324,-0.0319,-0.0322,-0.0313,-0.0301,-0.03,-0.0287,-0.0263,-0.0242,-0.0229,-0.0196,-0.0169,-0.015,-0.0135,-0.0115,-0.0074,-0.0021,-0.0075,-0.0073,-0.0032,0.0057,0.0034,0.0041,-0.0019,-0.0017,-0.0016,0.0063,0,-0.0344,-0.0356,-0.0346,-0.0345,-0.0345,-0.0319,-0.0305,-0.0277,-0.0251,-0.0219,-0.0176,-0.0149,-0.0144,-0.0128,-0.0085,-0.0043,0.0002,-0.0043,0.0034,0.0036,0.0026,0.0051,-0.0011,0.0069,0.0071,0.0073,0.0074,0,-0.0369,-0.037,-0.0381,-0.0353,-0.0351,-0.0349,-0.0312,-0.0296,-0.0242,-0.0219,-0.0178,-0.0148,-0.0084,-0.0085,0.0007,-0.0027,0.0019,0.0054,0.0058,0.0042,0.0029,0.0062,0.009,0.0089,0.0088,0.0087,0.0086,0,-0.0388,-0.0387,-0.0394,-0.0389,-0.0367,-0.0361,-0.0345,-0.03,-0.0273,-0.0218,-0.019,-0.0125,-0.0087,-0.0026,0.004,0.0027,0.0138,0.0132,0.0158,0.0157,0.0152,0.0146,0.0212,0.0211,0.0211,0.0211,0.0211,0,-0.0402,-0.0404,-0.0407,-0.0411,-0.0407,-0.0382,-0.0364,-0.0337,-0.0286,-0.0245,-0.0194,-0.0148,-0.007,-0.0002,0.0052,0.0128,0.015,0.0173,0.0182,0.015,0.0143,0.0159,0.0151,0.0214,0.0213,0.0213,0.0212,0,-0.0413,-0.0419,-0.0425,-0.042,-0.0419,-0.0418,-0.0385,-0.0362,-0.0318,-0.0263,-0.0244,-0.0155,-0.0071,0.0005,0.0114,0.0143,0.0218,0.0242,0.0202,0.0205,0.0208,0.02,0.0285,0.0285,0.0285,0.0285,0.0285,0,-0.0415,-0.0426,-0.0445,-0.0452,-0.0453,-0.0447,-0.0435,-0.039,-0.0355,-0.0264,-0.0231,-0.014,-0.0079,0.0062,0.0127,0.0229,0.0238,0.0273,0.0247,0.0219,0.022,0.0211,0.0204,0.0285,0.0285,0.0285,0.0285,0,-0.0417,-0.0438,-0.0448,-0.0471,-0.0475,-0.0465,-0.0441,-0.0412,-0.0344,-0.0309,-0.0201,-0.012,-0.0024,0.0068,0.0144,0.0214,0.0245,0.0272,0.0273,0.0249,0.022,0.0218,0.0211,0.0285,0.0285,0.0285,0.0285,0,-0.0419,-0.0435,-0.0463,-0.0474,-0.0484,-0.0469,-0.0455,-0.0394,-0.035,-0.0242,-0.0211,-0.0102,-0.0037,0.0062,0.0132,0.0194,0.0208,0.0221,0.0224,0.0225,0.0172,0.0124,0.0181,0,0,0,0,0,-0.0411,-0.0433,-0.0454,-0.0467,-0.0478,-0.0482,-0.0446,-0.0421,-0.0356,-0.0279,-0.0237,-0.0144,-0.002,0.0036,0.0097,0.0112,0.0199,0.0182,0.0211,0.0284,0.0284,0.0228,0,0,0,0,0,0,-0.0404,-0.0438,-0.0453,-0.0458,-0.0465,-0.0467,-0.0445,-0.0406,-0.0348,-0.028,-0.0209,-0.0152,-0.0034,-0.0061,0.0089,0.0109,0.0131,0.0245,0.0246,0.0284,0.0284,0.0284,0.0227,0,0,0,0,0]}]]